International Skating Union - Official Site

ISU World Cup Speed Skating Final
March 11-12, 2017

Draw | Lap Times | Index | World Cup

Referee: Berri  DE JONGE  (NED)
Starter: Ole Herman  SÖRLI  (NOR)
StartTime: EndTime: Air Temp: Ice Temp: Humidity:
14:02 14:48 15.5℃ -6.3℃ 42.8%
Result 5000m Men Division A
Rankings as of Mar 11 2017 3:26PM
Rank: No.: Name: Nation: Time: Behind: Points:
1 26 Jorrit  Bergsma NED NED 6:17.74200m - 18.77 - (18.7)
600m - 48.76 - (29.9)
1000m - 1:19.24 - (30.4)
1400m - 1:49.46 - (30.2)
1800m - 2:19.03 - (29.5)
2200m - 2:48.73 - (29.7)
2600m - 3:18.79 - (30.0)
3000m - 3:48.73 - (29.9)
3400m - 4:18.49 - (29.7)
3800m - 4:48.13 - (29.6)
4200m - 5:17.88 - (29.7)
4600m - 5:47.67 - (29.7)
5000m - 6:17.74 - (30.0)
150
2 4 Ted-Jan  Bloemen CAN CAN 6:18.46200m - 19.23 - (19.2)
600m - 49.77 - (30.5)
1000m - 1:19.76 - (29.9)
1400m - 1:49.76 - (30.0)
1800m - 2:19.73 - (29.9)
2200m - 2:49.62 - (29.8)
2600m - 3:19.71 - (30.0)
3000m - 3:49.83 - (30.1)
3400m - 4:19.96 - (30.1)
3800m - 4:50.27 - (30.3)
4200m - 5:20.19 - (29.9)
4600m - 5:49.17 - (28.9)
5000m - 6:18.46 - (29.3)
0.72 120
3 29 Erik Jan  Kooiman NED NED 6:19.07200m - 19.86 - (19.8)
600m - 49.30 - (29.4)
1000m - 1:18.94 - (29.6)
1400m - 1:48.59 - (29.6)
1800m - 2:18.46 - (29.8)
2200m - 2:48.26 - (29.8)
2600m - 3:18.20 - (29.9)
3000m - 3:48.26 - (30.0)
3400m - 4:18.12 - (29.8)
3800m - 4:48.17 - (30.0)
4200m - 5:18.40 - (30.2)
4600m - 5:48.70 - (30.3)
5000m - 6:19.07 - (30.3)
1.33 104
4 34 Patrick  Roest NED NED 6:20.25200m - 19.30 - (19.3)
600m - 49.36 - (30.0)
1000m - 1:19.59 - (30.2)
1400m - 1:49.55 - (29.9)
1800m - 2:19.66 - (30.1)
2200m - 2:49.73 - (30.0)
2600m - 3:19.73 - (30.0)
3000m - 3:49.63 - (29.9)
3400m - 4:19.66 - (30.0)
3800m - 4:49.80 - (30.1)
4200m - 5:19.91 - (30.1)
4600m - 5:50.00 - (30.0)
5000m - 6:20.25 - (30.2)
2.51 90
5 1 Bart  Swings BEL BEL 6:21.81200m - 18.59 - (18.5)
600m - 47.76 - (29.1)
1000m - 1:17.58 - (29.8)
1400m - 1:47.57 - (29.9)
1800m - 2:17.77 - (30.2)
2200m - 2:47.93 - (30.1)
2600m - 3:18.24 - (30.3)
3000m - 3:48.45 - (30.2)
3400m - 4:18.78 - (30.3)
3800m - 4:49.32 - (30.5)
4200m - 5:19.90 - (30.5)
4600m - 5:50.63 - (30.7)
5000m - 6:21.81 - (31.1)
4.07 76
6 11 Patrick  Beckert GER GER 6:23.01200m - 19.48 - (19.4)
600m - 49.16 - (29.6)
1000m - 1:19.47 - (30.3)
1400m - 1:49.68 - (30.2)
1800m - 2:19.85 - (30.1)
2200m - 2:49.76 - (29.9)
2600m - 3:19.88 - (30.1)
3000m - 3:50.03 - (30.1)
3400m - 4:20.68 - (30.6)
3800m - 4:51.46 - (30.7)
4200m - 5:22.13 - (30.6)
4600m - 5:52.45 - (30.3)
5000m - 6:23.01 - (30.5)
5.27 45
7 19 Nicola  Tumolero ITA ITA 6:24.03200m - 19.25 - (19.2)
600m - 49.94 - (30.6)
1000m - 1:20.47 - (30.5)
1400m - 1:50.81 - (30.3)
1800m - 2:21.02 - (30.2)
2200m - 2:51.43 - (30.4)
2600m - 3:21.95 - (30.5)
3000m - 3:52.55 - (30.6)
3400m - 4:22.90 - (30.3)
3800m - 4:53.18 - (30.2)
4200m - 5:23.47 - (30.2)
4600m - 5:53.77 - (30.3)
5000m - 6:24.03 - (30.2)
6.29 40
8 27 Douwe  de Vries NED NED 6:26.17200m - 18.86 - (18.8)
600m - 48.80 - (29.9)
1000m - 1:18.88 - (30.0)
1400m - 1:48.78 - (29.9)
1800m - 2:18.60 - (29.8)
2200m - 2:48.64 - (30.0)
2600m - 3:18.92 - (30.2)
3000m - 3:49.33 - (30.4)
3400m - 4:20.28 - (30.9)
3800m - 4:51.43 - (31.1)
4200m - 5:22.99 - (31.5)
4600m - 5:54.59 - (31.6)
5000m - 6:26.17 - (31.5)
8.43 36
9 23 Ryosuke  Tsuchiya JPN JPN 6:26.94200m - 19.31 - (19.3)
600m - 49.45 - (30.1)
1000m - 1:19.63 - (30.1)
1400m - 1:49.96 - (30.3)
1800m - 2:20.45 - (30.4)
2200m - 2:51.29 - (30.8)
2600m - 3:22.04 - (30.7)
3000m - 3:52.83 - (30.7)
3400m - 4:23.30 - (30.4)
3800m - 4:53.96 - (30.6)
4200m - 5:24.80 - (30.8)
4600m - 5:55.85 - (31.0)
5000m - 6:26.94 - (31.0)
9.20 32
10 44 Peter  Michael NZL NZL 6:37.62200m - 18.94 - (18.9)
600m - 48.42 - (29.4)
1000m - 1:19.39 - (30.9)
1400m - 1:49.42 - (30.0)
1800m - 2:19.66 - (30.2)
2200m - 2:49.94 - (30.2)
2600m - 3:20.59 - (30.6)
3000m - 3:51.67 - (31.0)
3400m - 4:23.00 - (31.3)
3800m - 4:55.67 - (32.6)
4200m - 5:29.57 - (33.9)
4600m - 6:03.69 - (34.1)
5000m - 6:37.62 - (33.9)
19.88 28
11 17 Andrea  Giovannini ITA ITA 6:39.67200m - 19.06 - (19.0)
600m - 49.20 - (30.1)
1000m - 1:20.05 - (30.8)
1400m - 1:51.01 - (30.9)
1800m - 2:21.76 - (30.7)
2200m - 2:52.57 - (30.8)
2600m - 3:23.69 - (31.1)
3000m - 3:55.35 - (31.6)
3400m - 4:27.38 - (32.0)
3800m - 4:59.74 - (32.3)
4200m - 5:32.75 - (33.0)
4600m - 6:06.06 - (33.3)
5000m - 6:39.67 - (33.6)
21.93 24
12 43 Sverre Lunde  Pedersen NOR NOR DQ200m - 19.00 - (19.0)
600m - 48.97 - (29.9)
1000m - 1:19.03 - (30.0)
1400m - 1:49.26 - (30.2)
1800m - 2:19.50 - (30.2)
2200m - 2:49.81 - (30.3)
2600m - 3:20.25 - (30.4)
3000m - 3:50.53 - (30.2)
3400m - 4:20.92 - (30.3)
3800m - 4:51.22 - (30.3)
4200m - 5:21.55 - (30.3)
4600m - 5:51.65 - (30.1)
5000m - 6:22.36 - (30.7)
0